Snowfall_Accumulation
1.1 3.3 6.4 3.2 2.4 2.8 3.4 4.1 3.4 1.3 0.2 1.0 1.3 1.2 0.9 0.5 0.5 0.6 0.3 0.2 0.2 0.3 0.2 0.1 0.0 0.0 0.0 0.0 0.0 0.0 0.0 0.0 0.0 0.0 0.0 0.0 0.0 0.0 0.0 0.1 0.1 0.3 0.4 0.7
4.4 5.6 1.4 0.4 0.9 2.4 3.8 5.0 3.3 1.2 0.5 1.3 1.6 1.4 1.0 0.6 0.7 0.6 0.4 0.6 0.5 0.5 0.5 0.4 0.2 0.1 0.0 0.0 0.0 0.0 0.0 0.0 0.0 0.0 0.0 0.0 0.0 0.0 0.0 0.0 0.1 0.2 0.4 0.8
6.2 2.4 0.6 1.7 2.6 4.1 4.4 4.2 3.2 3.3 1.4 1.4 2.6 2.7 1.3 0.7 0.6 0.6 0.5 0.6 0.6 0.6 0.6 0.5 0.2 0.2 0.1 0.1 0.0 0.0 0.0 0.0 0.0 0.0 0.0 0.0 0.0 0.0 0.0 0.0 0.0 0.1 0.2 0.8
3.4 0.7 0.8 2.3 3.0 4.0 5.0 1.4 2.2 3.2 4.6 5.3 4.5 7.4 2.1 1.2 0.8 0.9 0.8 0.9 0.6 0.4 0.4 0.3 0.5 0.3 0.3 0.2 0.1 0.0 0.1 0.0 0.0 0.0 0.0 0.0 0.0 0.0 0.0 0.0 0.0 0.1 0.1 0.7
4.2 0.9 1.3 3.1 2.0 2.2 3.4 1.0 1.7 3.6 5.8 6.6 3.7 7.2 3.2 1.3 1.4 1.2 1.0 1.0 0.6 0.6 0.7 0.7 0.8 0.8 0.5 0.6 0.2 0.1 0.1 0.1 0.1 0.0 0.0 0.0 0.0 0.0 0.0 0.0 0.0 0.1 0.1 0.2
2.0 0.8 1.1 1.5 0.5 0.9 1.5 1.6 2.3 3.9 7.8 13.9 3.9 5.6 4.8 3.4 3.5 2.0 1.1 1.1 0.8 0.8 0.8 0.8 0.8 0.9 0.9 0.7 0.7 0.3 0.2 0.2 0.1 0.1 0.1 0.2 0.2 0.2 0.1 0.1 0.0 0.1 0.1 0.2
5.5 2.6 1.3 0.9 2.5 2.3 3.6 9.6 21.0 22.0 20.2 10.6 1.8 3.4 4.3 2.7 2.2 1.9 1.7 1.8 1.2 0.9 0.8 0.9 0.9 0.7 1.0 0.9 0.6 0.8 0.3 0.8 0.8 0.4 0.5 0.5 0.2 0.2 0.3 0.3 0.2 0.1 0.1 0.2
10.7 10.0 2.4 1.4 2.6 4.4 4.1 7.2 15.9 15.7 9.8 4.3 2.5 3.9 3.6 2.0 1.4 1.3 1.1 1.1 1.1 0.9 0.7 0.7 0.9 0.9 0.8 0.7 0.6 0.7 0.7 0.7 0.8 0.8 0.5 0.5 0.2 0.2 0.3 0.2 0.2 0.3 0.1 0.1
10.4 7.4 1.2 0.7 1.1 2.7 5.8 6.6 5.5 10.9 7.9 5.3 4.0 3.1 2.6 1.3 1.1 1.0 0.9 0.8 1.1 1.1 1.0 0.9 1.0 0.8 0.8 0.8 0.6 0.7 0.7 0.6 0.5 0.6 0.6 0.6 0.4 0.4 0.3 0.3 0.3 0.2 0.1 0.0
10.3 9.1 2.3 0.7 1.3 1.6 3.1 4.4 8.1 15.2 12.9 7.3 4.1 3.7 4.5 2.9 2.4 1.7 1.6 1.5 1.1 1.1 1.3 1.4 0.8 0.7 0.9 0.7 0.7 0.7 0.8 0.8 0.5 0.5 0.5 0.5 1.0 0.5 0.4 0.4 0.4 0.4 0.3 0.1
7.7 11.0 6.6 2.8 4.6 4.6 4.4 6.3 9.5 12.8 10.8 9.4 5.9 5.0 3.9 3.6 2.6 2.1 1.9 1.7 1.2 1.1 1.2 1.3 0.9 0.6 0.7 0.6 0.7 0.8 0.9 0.9 0.7 0.6 0.5 0.9 0.9 0.4 0.4 0.5 0.5 0.5 0.4 0.4
6.8 11.5 9.5 4.2 1.9 2.1 3.9 6.0 9.2 15.3 11.6 7.7 7.1 5.6 2.9 2.1 2.1 1.9 1.8 1.7 1.5 1.2 1.0 0.9 0.9 0.4 0.4 0.6 0.7 0.8 1.1 1.1 1.0 0.6 0.5 0.5 0.4 0.5 0.4 0.5 0.6 0.5 0.5 0.5
12.1 17.8 15.7 6.8 3.5 2.9 5.2 5.5 6.7 9.5 11.6 8.9 7.8 5.6 2.1 1.2 1.0 1.2 1.2 1.4 1.5 1.1 0.8 1.0 0.9 0.5 0.5 0.7 0.6 0.9 1.0 1.3 1.0 1.1 0.8 0.4 0.4 0.5 0.6 0.4 0.4 0.4 0.5 0.4
9.8 19.8 13.8 10.6 7.8 7.7 7.5 5.5 5.3 9.6 13.8 8.4 4.8 4.0 2.5 1.9 1.4 1.3 1.1 1.1 1.6 1.8 1.1 1.0 1.1 0.8 0.6 0.6 0.7 0.7 0.9 1.2 1.0 0.9 1.1 0.9 0.8 0.4 0.5 0.5 0.4 0.4 0.3 0.4
9.3 15.9 7.4 4.4 3.2 4.4 5.1 4.3 4.2 6.8 7.1 6.9 3.8 3.4 3.3 2.8 2.4 1.9 1.6 1.4 1.5 1.6 1.4 1.2 1.3 1.4 0.9 0.8 0.5 0.5 0.7 0.9 0.9 1.0 1.0 0.9 0.9 0.9 0.7 0.5 0.4 0.5 0.4 0.4
10.7 13.6 6.7 3.9 2.6 3.2 3.9 3.1 3.2 3.8 4.0 4.0 3.0 3.2 2.7 2.4 2.0 1.9 1.8 1.8 1.9 2.0 1.5 1.3 1.4 1.7 1.5 0.9 0.7 0.7 0.8 0.7 0.8 1.0 1.0 1.0 1.1 1.1 1.2 0.7 0.4 0.5 0.6 0.6
12.3 13.3 11.9 6.3 2.8 5.0 6.3 4.1 4.0 4.2 4.1 4.5 5.1 4.1 2.7 2.5 2.4 2.8 2.8 2.9 2.9 2.7 2.1 1.7 1.6 1.8 1.5 1.1 0.9 1.0 0.8 0.8 0.9 0.9 1.2 1.2 1.2 1.2 1.3 1.4 1.2 0.8 0.9 1.0
10.5 13.1 17.0 11.2 7.9 11.1 4.5 2.6 2.9 3.6 4.1 4.5 4.3 3.4 3.2 3.3 2.8 2.7 2.8 3.5 3.4 2.9 2.5 2.2 2.0 1.5 1.2 0.9 1.0 0.9 0.8 0.9 0.9 0.9 1.1 1.1 1.2 1.2 1.2 1.3 1.6 1.3 1.2 1.2
4.8 12.5 19.7 17.3 12.2 6.1 2.8 2.4 3.2 4.4 5.0 4.0 3.6 3.3 2.8 2.3 2.0 2.1 1.9 2.4 3.2 3.3 3.1 2.7 2.2 1.5 1.0 0.8 0.9 0.9 0.8 0.7 0.7 0.9 1.1 1.2 1.4 1.3 1.1 1.3 1.8 1.6 1.5 1.4
4.8 10.5 21.0 19.5 15.0 7.1 4.1 2.3 1.9 3.2 6.2 3.4 3.3 3.6 3.0 2.8 4.0 3.1 2.2 2.4 2.6 2.4 2.8 2.8 2.4 1.7 1.0 0.5 0.6 0.8 0.9 0.7 0.9 1.1 1.0 1.1 1.2 1.4 1.2 1.4 2.0 1.8 1.6 1.2
10.3 16.6 20.3 16.3 13.4 5.4 3.6 2.2 1.7 5.8 7.0 3.3 3.2 3.5 3.5 4.2 4.9 3.6 2.7 2.7 2.7 2.4 2.5 2.5 2.2 1.8 1.3 0.6 0.5 0.8 1.0 1.1 0.9 1.0 1.0 1.0 1.2 1.2 1.4 1.9 2.2 1.7 1.5 1.8
7.8 11.7 12.4 12.0 13.9 7.3 3.2 3.6 5.9 6.6 3.3 2.5 2.4 2.5 2.8 2.6 2.4 2.3 2.3 2.3 2.0 2.2 2.0 1.9 2.2 2.0 1.4 0.8 0.8 0.9 0.8 1.1 0.9 1.0 1.2 1.4 1.5 1.2 1.1 1.7 2.1 2.0 2.1 1.9
6.4 8.1 8.6 8.3 6.6 4.1 2.9 3.6 3.4 2.9 2.9 2.3 2.2 2.0 2.0 2.2 2.2 2.4 2.4 2.2 2.0 2.1 2.1 1.7 2.0 2.0 1.5 1.0 1.0 1.4 1.0 1.2 1.4 1.5 1.4 1.6 1.5 1.6 1.4 1.6 1.8 1.7 1.8 2.1
3.8 3.6 6.1 6.0 3.6 2.7 2.6 2.5 2.4 2.2 2.3 1.9 1.9 1.7 1.6 1.8 1.9 2.2 2.2 2.0 2.0 1.8 1.9 1.9 2.0 1.8 1.6 1.6 1.0 1.3 1.3 1.5 1.6 1.6 1.7 1.7 1.8 1.9 1.8 1.7 1.9 2.1 2.2 3.3
3.4 4.1 5.6 5.2 2.9 2.3 2.2 2.2 2.1 1.7 1.6 1.5 1.6 1.6 1.6 1.8 1.9 1.9 2.1 2.1 2.0 2.2 2.2 2.0 2.2 2.1 1.9 1.9 1.5 1.3 1.5 1.7 1.8 1.7 1.9 2.2 2.1 2.2 2.0 2.0 1.9 2.3 2.4 3.7
2.7 4.0 5.9 5.3 3.1 3.8 3.0 2.2 1.9 2.0 1.9 1.8 1.8 1.8 1.5 1.8 2.2 2.1 2.3 2.2 2.3 2.1 2.2 2.2 2.0 2.4 2.1 2.0 1.8 1.7 1.8 1.9 2.0 2.1 1.8 2.1 2.4 1.9 1.8 1.9 2.0 1.6 1.7 2.1